Regional Weather Roundup
Issued by NWS Mobile, AL

Home | Current Version | Previous Version | Text Only | Print | Product List | Glossary On
Versions: 1 2 3 4 5 6 7 8 9 10 11 12 13 14 15 16 17 18 19 20 21 22 23 24 25 26 27
000
ASUS44 KMOB 240013
RWRMOB
REGIONAL WEATHER ROUNDUP
NATIONAL WEATHER SERVICE MOBILE AL
700 PM CDT MON OCT 23 2017

NOTE: "FAIR" INDICATES FEW OR NO CLOUDS BELOW 12,000 FEET WITH NO
      SIGNIFICANT WEATHER AND/OR OBSTRUCTIONS TO VISIBILITY.

  * THESE STATIONS ARE PART OF THE UNIVERSITY OF SOUTH ALABAMA
    MESONET AND ARE NOT UNDER NWS OR FAA QUALITY CONTROL.

ALZ061>064-240100-
COASTAL ALABAMA

CITY           SKY/WX    TMP DP  RH WIND       PRES   REMARKS
MOBILE REG APT CLEAR     63  51  65 N5        30.00R
6HR MIN TEMP:  63; 6HR MAX TEMP:  74;

BROOKLEY FIELD CLEAR     66  53  63 NW9       30.00R
6HR MIN TEMP:  66; 6HR MAX TEMP:  75;

USA CAMPUS*    NOT AVBL
DOG RIVER*     NOT AVBL


CITY           SKY/WX    TMP DP  RH WIND       PRES   REMARKS
GULF SHORES    CLEAR     64  55  72 W6        29.98R

$$

ALZ051>060-240100-
INTERIOR SOUTHWEST AND SOUTH CENTRAL ALABAMA

CITY           SKY/WX    TMP DP  RH WIND       PRES   REMARKS
GREENVILLE     NOT AVBL
EVERGREEN      CLEAR     60  53  77 N5        29.99R
6HR MIN TEMP:  60; 6HR MAX TEMP:  73;

ATMORE*          N/A    N/A N/A N/A VRB5        N/A
ANDALUSIA/OPP  CLEAR     64  53  67 NW7       29.98R
6HR MIN TEMP:  64; 6HR MAX TEMP:  76;

ANDALUSIA*       N/A     61  54  77 NW5       29.98R
FLORALA APT    CLEAR     62  53  72 CALM      30.00
6HR MIN TEMP:  62; 6HR MAX TEMP:  75;

FLORALA*         N/A     63  54  72 SW5       30.66R

$$

FLZ001>006-240100-
WESTERN FLORIDA PANHANDLE

CITY           SKY/WX    TMP DP  RH WIND       PRES   REMARKS
PENSACOLA      CLEAR     68  54  60 N8        29.97R
6HR MIN TEMP:  68; 6HR MAX TEMP:  77;

NAS PENSACOLA  CLEAR     66  53  63 N6        29.97R
6HR MIN TEMP:  66; 6HR MAX TEMP:  76;

MILTON         CLEAR     59  57  93 CALM      29.98R
6HR MIN TEMP:  59; 6HR MAX TEMP:  74;

WHTNG S FIELD  CLEAR     64  52  64 N7        29.97S
6HR MIN TEMP:  64; 6HR MAX TEMP:  77;



CITY           SKY/WX    TMP DP  RH WIND       PRES   REMARKS
JAY*           NOT AVBL
DUKE FIELD     PTCLDY    65  53  65 N8        29.97R
CRESTVIEW      CLEAR     64  53  67 N6        29.99R
6HR MIN TEMP:  64; 6HR MAX TEMP:  77;

VALPARAISO     CLEAR     67  54  63 N7        29.96R
6HR MIN TEMP:  67; 6HR MAX TEMP:  78;

DESTIN         PTCLDY    71  54  54 N10       29.96R
6HR MIN TEMP:  71; 6HR MAX TEMP:  81;


$$

MSZ076-079-240100-
INTERIOR SOUTHEAST MISSISSIPPI

CITY           SKY/WX    TMP DP  RH WIND       PRES   REMARKS
LEAKESVILLE*   NOT AVBL
AGRICOLA*        N/A     61  50  67 CALM      29.99

$$

MARINE OBSERVATIONS

STATION/POSITION TIME  TEMP    WIND        PRES    WAVE
                       AIR SEA DIR/SP/G            HT/PER
                 (UTC) (F)     (DEG/KT/KT) (MB)    (FT/S)
PASCAGOULA       2348                      1015.4R
PETIT BOIS ISLND 2348                      1016.2R
GRAND BAY        2245   71     340/ 10     1016.0R
KATRINA CUT      2330   71     350/ 14     1015.2S
E DAUPHIN ISLAND 2300   71     330/ 16/ 17 1014.5R
MIDDLE BAY LIGHT 2330   70     340/ 21     1014.6S
USCG MOBILE BAY  2348      76              1015.4R
STATE DOCKS      2348                      1015.4R
MEAHER PARK      2330   68     340/  7     1015.2R
WEEKS BAY        2245   70                 1014.0S
FORT MORGAN      2330   71     360/ 17/ 19   N/A
12 S ORANGE BCH  2350      78              1014.6R   3/ 8
PENSACOLA BAY    2348                      1015.0R
64 S DAUPHIN ISL 0000   74 81  350/ 14/ 17 1015.2
67 S FORT MORGAN 2330   72        CALM     1014.6F

$$

SELECTED LOCATIONS ACROSS THE REGION

CITY           SKY/WX    TMP DP  RH WIND       PRES   REMARKS
NEW ORLEANS    CLEAR     69  49  48 N8        30.01R
GULFPORT       CLEAR     64  51  62 N3        30.00R
PASCAGOULA AP  CLEAR     65  49  56 NW5       29.99R
PASCAGOULA*    NOT AVBL
HATTIESBURG    PTCLDY    60  53  77 CALM      30.02S
LAUREL         CLEAR     56  52  86 NW3       30.02S
MERIDIAN       PTCLDY    58  53  84 S3        30.01S
JACKSON        PTCLDY    60  48  64 CALM      30.01S
MONTGOMERY     PTCLDY    62  52  69 NW6       29.99R
TROY           CLEAR     60  54  80 NW5       29.98R
ASHFORD*         N/A     61  54  77 NW5       29.98R
DOTHAN         CLEAR     64  56  75 NW8       29.99R
PANAMA CITY    CLEAR     67  57  70 NW8       29.93R

$$





USA.gov is the U.S. government's official web portal to all federal, state and local government web resources and services.